Tracking 19832 objects as of 24-Aug-2019
HD Live streaming from Space Station
objects crossing your sky now

SBS 2

Track SBS 2 now!
SBS 2 is classified as:


NORAD ID: 12855
Int'l Code: 1981-096A
Perigee: 35,810.9 km
Apogee: 35,843.4 km
Inclination: 13.9 °
Period: 1,437.8 minutes
Semi major axis: 42198 km
RCS: 7.6855 m2 (large)
Launch date: September 24, 1981
Source: United States (US)
Launch site: AIR FORCE EASTERN TEST RANGE (AFETR)
aabbcc
Your satellite tracking list
Your tracking list is empty




NASA's NSSDC Master Catalog

Two Line Element Set (TLE):
1 12855U 81096A   19235.53697465 +.00000065 +00000-0 +00000-0 0  9991
2 12855 013.9474 341.8928 0003849 164.9033 207.1515 01.00152594093680
Source of the keplerian elements: AFSPC